www.pogodaiklimat.ru

Погода и климат >> Архив погоды >> Индия >> Nagpur


ПОГОДА в Nagpur

  • Прогноз погоды в Nagpur
  • Монитор погоды в Nagpur
  • Климат города

АРХИВ ПОГОДЫ в Nagpur

Время (UTC), дата Ветер
(напр.,м/с)
 
Видим.   Явления Облачность Т
(С)
Тd
(С)
f
(%)
Тe
(С)
Тes
(С)
Комфортность P
(гПа)
Po
(гПа)
Тmin
(С)
Tmax
(С)
R
(мм)
R24
(мм)
S
(см)
06 17.06 З 5 4000 м 5/3 600 м
[Sc Ac trans]
+35.4 +20.2 41 +41 +48 опасность
перегрева
1003.2 1003.0
09 17.06 З 5 4000 м 9/5 600 м
[Cu Sc Ac trans]
+36.0 +19.5 38 +41 +44 опасность
перегрева
1001.4 1001.0
12 17.06 Ю 3 4000 м 5/5 600 м
[Cu Sc]
+36.8 +19.0 35 +41 +42 опасность
перегрева
999.3 999.0 +38.0
15 17.06 Ю 3 4000 м мгла 5/3 600 м
[Sc Ac trans]
+33.4 +19.1 43 +39 +39 очень
душно
1000.9 1001.0
18 17.06 Ю 5 4000 м мгла 5/3 600 м
[Sc Ac trans]
+31.0 +20.5 54 +38 -40 очень
душно
1002.3 1002.0
21 17.06 Ю 4 4000 м мгла 5/3 600 м
[Sc Ac trans]
+29.0 +21.2 63 +37 +37 очень
душно
1001.5 1002.0
00 18.06 Ю 2 4000 м 1/0 600 м
[Ac trans]
+27.0 +21.6 72 +34 +34 очень
душно
1002.3 1002.0
03 18.06 ЮЗ 3 4000 м 3/0
[Ac trans]
+31.0 +22.2 60 +40 +46 очень
душно
1003.4 1003.0 +26.6
06 18.06 Ю 2 4000 м 4/4 600 м
[Cu Sc]
+35.2 +23.2 50 +46 +59 опасность
перегрева
1002.7 1003.0
09 18.06 З 4 2000 м гроза, ливневой дождь 8/6 450 м
[Cb cap As trans]
+27.4 +25.1 87 +39 +42 очень
душно
1000.5 1001.0 15
12 18.06 ЮВ 2 2000 м гроза, ливневой дождь 9/8 300 м
[Cb cap As op]
+25.0 +24.1 95 +34 +35 очень
душно
1001.2 1001.0 +36.0 30
15 18.06 ЮЗ 3 4000 м мгла 9/4 600 м
[Cb cap Ac trans]
+26.2 +25.1 94 +38 +38 очень
душно
1001.7 1002.0 30
18 18.06 штиль 0 4000 м мгла 9/4 600 м
[Cb cap Ac trans]
+26.0 +24.6 92 +37 +37 очень
душно
1002.9 1003.0 30
21 18.06 Ю 3 4000 м мгла 8/4 600 м
[Sc Ac trans]
+25.8 +24.6 93 +36 +36 очень
душно
1002.1 1002.0 30
00 19.06 штиль 0 4000 м мгла 6/3 600 м
[Sc Ac trans]
+25.0 +24.1 95 +34 +34 очень
душно
1002.5 1003.0 30
03 19.06 Ю 3 4000 м мгла 4/1 600 м
[Sc Ac trans Ci fib]
+29.4 +24.2 74 +41 +47 опасность
перегрева
1003.3 1003.0 +23.7 30
06 19.06 В 2 4000 м 4/1 750 м
[Cu hum Ac trans Ci fib]
+33.0 +23.8 59 +45 +61 опасность
перегрева
1002.1 1002.0
09 19.06 В 2 4000 м 4/4 600 м
[Cu Sc]
+35.4 +23.4 50 +46 +56 опасность
перегрева
998.9 999.0
12 19.06 З 4 4000 м мгла {гроза} 8/5 600 м
[Cb cap Ac trans]
+29.6 +22.2 64 +38 +39 очень
душно
999.5 1000.0 +37.0
15 19.06 ЮВ 2 4000 м мгла 9/3 600 м
[Sc Ac trans]
+28.4 +24.1 78 +40 +40 очень
душно
1001.4 1001.0
18 19.06 штиль 0 4000 м мгла 8/3 600 м
[Sc Ac trans]
+27.0 +24.7 87 +38 +38 очень
душно
1003.0 1003.0
21 19.06 штиль 0 4000 м мгла 8/3 600 м
[Sc Ac trans]
+27.2 +24.9 87 +39 +39 очень
душно
1002.0 1002.0
00 20.06 штиль 0 4000 м мгла 9/4 600 м
[Sc Ac trans]
+26.8 +25.1 90 +39 +39 очень
душно
1002.6 1003.0
03 20.06 С 2 4000 м 4/0
[Ac trans]
+31.6 +23.2 61 +42 +49 опасность
перегрева
1002.9 1003.0 +26.2
06 20.06 штиль 0 4000 м 5/0
[Ac trans Ci fib]
+33.8 +23.1 54 +44 +67 опасность
перегрева
1002.5 1003.0
09 20.06 Ю 1 4000 м 5/4 600 м
[Cu Sc Ac trans]
+36.8 +22.7 44 +46 +56 опасность
перегрева
999.2 999.0
12 20.06 ЮВ 3 4000 м 8/5 600 м
[Cb cap Ac trans]
+34.0 +23.7 55 +45 +46 опасность
перегрева
998.7 999.0 +38.0
15 20.06 С 3 2000 м зарница {гроза} 8/4 450 м
[Cb cap As op]
+30.0 +22.0 62 +39 +39 очень
душно
1002.4 1002.0
18 20.06 ЮВ 1 2000 м мгла 8/4 450 м
[Cb cap As op]
+29.0 +24.4 76 +41 +41 опасность
перегрева
1002.8 1003.0
21 20.06 ЮЗ 1 2000 м мгла 8/4 450 м
[Cb cap As op]
+28.2 +25.1 83 +41 +41 опасность
перегрева
1002.4 1002.0
00 21.06 З 2 4000 м мгла 4/0
[Ac trans Ci fib]
+26.6 +23.4 83 +36 +36 очень
душно
1002.7 1003.0 0.0
03 21.06 штиль 0 4000 м 4/0
[Ac trans Ci fib]
+31.6 +22.9 60 +42 +52 опасность
перегрева
1003.2 1003.0 +25.9 0.0
06 21.06 Ю 2 4000 м 4/1 600 м
[Sc Ac trans Ci fib]
+35.2 +23.8 52 +47 +64 опасность
перегрева
1002.3 1002.0
09 21.06 штиль 0 4000 м 4/4 600 м
[Cu Sc]
+36.6 +22.1 43 +45 +58 опасность
перегрева
998.9 999.0
12 21.06 В 2 4000 м мгла 4/4 600 м
[Cb calv]
+36.6 +23.8 48 +48 +49 опасность
перегрева
997.1 997.0 +38.0
15 21.06 Ю 3 4000 м гроза без осадков 6/5 600 м
[Cb cap Ac trans]
+31.4 +22.0 57 +40 +40 очень
душно
1001.4 1001.0
18 21.06 Ю 1 1000 м слабый дождь {гроза} 10/5 600 м
[Cb cap As op]
+25.2 +24.9 98 +36 +36 очень
душно
1004.0 1004.0 23
21 21.06 З 1 2000 м 9/4 600 м
[Sc Ac trans]
+25.2 +24.6 96 +35 +35 очень
душно
1002.6 1003.0 23
00 22.06 СВ 2 2000 м мгла {дождь} 9/5 600 м
[Sc Ac trans]
+24.8 +24.5 98 +35 +35 очень
душно
1004.7 1005.0 23
03 22.06 В 3 4000 м мгла 10/5 600 м
[Cb calv As op]
+26.6 +24.9 90 +38 +39 очень
душно
1005.0 1005.0 +24.0 23
06 22.06 ЮВ 2 4000 м мгла 10/6 600 м
[Cu Sc As op]
+28.2 +25.1 83 +41 +43 опасность
перегрева
1003.8 1004.0
09 22.06 Ю 2 4000 м мгла 9/5 600 м
[Cu Sc As op]
+29.6 +25.1 77 +43 +46 опасность
перегрева
1002.0 1002.0
12 22.06 ЮВ 1 4000 м мгла 8/1 600 м
[Sc Ac trans Ci fib]
+29.8 +25.9 80 +45 +46 опасность
перегрева
1000.3 1000.0 +31.2
15 22.06 ЮВ 1 4000 м мгла 9/4 600 м
[Sc Ac trans]
+28.4 +25.6 85 +42 +42 опасность
перегрева
1002.5 1003.0
18 22.06 Ю 2 4000 м 6/4 600 м
[Sc Ac trans]
+26.8 +24.5 87 +38 +38 очень
душно
1003.2 1003.0
21 22.06 Ю 1 4000 м мгла 6/3 600 м
[Sc Ac trans]
+26.0 +24.3 90 +36 +36 очень
душно
1002.6 1003.0
00 23.06 В 1 4000 м мгла 6/3 600 м
[Sc Ac trans]
+25.0 +23.5 91 +34 +34 очень
душно
1002.9 1003.0
03 23.06 Ю 3 4000 м 4/1 600 м
[Sc Ac trans]
+29.0 +24.4 76 +41 +46 опасность
перегрева
1003.9 1004.0 +24.6
06 23.06 Ю 2 4000 м 5/4 600 м
[Cu Sc Ci fib]
+32.2 +25.1 66 +46 +59 опасность
перегрева
1002.3 1002.0
09 23.06 штиль 0 4000 м 5/5 600 м
[Cu Sc]
+34.4 +22.8 51 +44 +55 опасность
перегрева
999.8 1000.0
12 23.06 В 3 4000 м 5/4 600 м
[Cu Sc Ac trans]
+34.0 +23.4 54 +45 +46 опасность
перегрева
998.6 999.0 +35.5
15 23.06 Ю 3 4000 м зарница 6/4 600 м
[Cb cap Ac trans]
+30.2 +23.6 68 +41 +41 опасность
перегрева
1001.8 1002.0
18 23.06 штиль 0 4000 м зарница 6/4 600 м
[Cb cap Ac trans]
+28.6 +23.7 75 +39 +39 очень
душно
1002.8 1003.0
21 23.06 Ю 1 4000 м мгла 8/4 600 м
[Sc Ac trans]
+27.0 +24.1 84 +37 +37 очень
душно
1001.4 1001.0
00 24.06 штиль 0 4000 м мгла 6/3 600 м
[Sc Ac trans]
+25.8 +23.8 89 +35 +35 очень
душно
1001.7 1002.0
03 24.06 Ю 3 4000 м 5/4 600 м
[Cu Sc Ac trans]
+29.6 +25.1 77 +43 +47 опасность
перегрева
1003.4 1003.0 +25.1

 

Местоположение метеостанции Nagpur (Maharashtra, Индия): широта 21.10 долгота 79.05 высота над уровнем моря 310 м.

В архиве по умолчанию представлена погода в Nagpur за последнюю неделю. Архивные данные за месяц целиком и за предыдущие месяцы, начиная с января 2011 года, Вы можете получить, выбрав интересующий диапазон дат из раскрывающегося списка и нажав кнопку "Ввод!".


*Определитесь, кто Вы:
робот инопланетянин человек

Внимание! Время в таблицах - всемирное. Для получения местного времени необходимо прибавить поправку, которая в Nagpur равна 5.5 ч.

Смотрите также архив погоды в соседних городах и на ближайших метеорологических станциях:

Погода в Wardha (Maharashtra, Индия) (68 км)
Погода в Bramhapuri (Maharashtra, Индия) (100 км)
Погода в Chhindwara (Madhya Pradesh, Индия) (111 км)
Погода в Seoni (Madhya Pradesh, Индия) (121 км)
Погода в Yeotmal (Maharashtra, Индия) (122 км)
Погода в Gondia (Maharashtra, Индия) (126 км)
Погода в Chandrapur (Maharashtra, Индия) (128 км)
Погода в Amravati (Maharashtra, Индия) (133 км)
Погода в Betul (Madhya Pradesh, Индия) (144 км)
Погода в Pachmarhi (Madhya Pradesh, Индия) (165 км)

Пояснения к столбцам:

Ветер - указаны скорость ветра в м/с - средняя за 10 мин, порывы в срок и между сроками (в фигурных скобках) и направление, откуда дует ветер: С - северный, СВ - северо-восточный, В - восточный, ЮВ - юго-восточный, Ю - южный, ЮЗ - юго-западный, З - западный, СЗ - северо-западный.
Видимость - горизонтальная дальность видимости в метрах или километрах. При видимости от 1 до 10 км при отсутствии осадков обычно наблюдается дымка, при ухудшении видимости до 1 км и менее - туман. В сухую погоду видимость может ухудшаться дымом, пылью или мглою.
Явления - указаны атмосферные явления, наблюдавшиеся в срок или в последний час перед сроком; фигурными скобками обозначены явления, наблюдавшиеся между сроками (за 1-3 часа до срока); квадратными скобками обозначены град или гололедные отложения с указанием их диаметра в мм.
Облачность - указаны через наклонную черту общая и нижняя облачность в баллах и высота нижней границы облаков в метрах; квадратными скобками обозначены формы облаков: Ci - перистые, Cs - перисто-слоистые, Cc - перисто-кучевые, Ac - высококучевые, As - высокослоистые, Sc - слоисто-кучевые, Ns - слоисто-дождевые, Cu - кучевые, Cb - кучево-дождевые. Подробнее классификацию облаков см. в Атласе облаков (PDF).
T - Температура воздуха - температура, измеренная на высоте 2 м над землей.
Td - Температура точки росы - температура, при понижении до которой содержащийся в воздухе водяной пар достигнет насыщения.
f - Относительная влажность воздуха - влажноcть воздуха, измеренная на высоте 2 м над землей.
Te - Эффективная температура - температура, которую ощущает одетый по сезону человек в тени. Характеристика душности погоды. При расчете учитывается влияние влажности воздуха и скорости ветра на теплоощущения человека.
Tes - Эффективная температура на солнце - температура, которую ощущает человек, с поправкой на солнечный нагрев. Характеристика знойности погоды. Зависит от высоты солнца над горизонтом, облачности и скорости ветра. Ночью, в пасмурную погоду, а также при ветре 12 м/с и более поправка равна нулю.
P - Атмосферное давление - приведенное к уровню моря атмосферное давление.
Po - Атмосферное давление - измеренное на уровне метеостанции атмосферное давление.
Tmin - Минимальная температура - минимум температуры воздуха на высоте 2 м над землей.
Tmax - Максимальная температура - максимум температуры воздуха на высоте 2 м над землей.
R - Количество осадков - Количество выпавших осадков за период времени, мм. При наведении курсора мыши на число - период времени, за который выпало указанное количество осадков.
R24 - Количество осадков - Количество выпавших осадков за 24 часа, мм.
S - Снежный покров - Высота снежного покрова, см. При наведении курсора мыши на число - состояние снежного покрова и степень покрытия местности в баллах.